28/04/2024 13:45:00,0.267
28/04/2024 14:00:00,0.267
28/04/2024 14:15:00,0.267
28/04/2024 14:30:00,0.267
28/04/2024 14:45:00,0.266
28/04/2024 15:00:00,0.266
28/04/2024 15:15:00,0.266
28/04/2024 15:30:00,0.266
28/04/2024 15:45:00,0.266
28/04/2024 16:00:00,0.266
28/04/2024 16:15:00,0.266
28/04/2024 16:30:00,0.266
28/04/2024 16:45:00,0.266
28/04/2024 17:00:00,0.266
28/04/2024 17:15:00,0.266
28/04/2024 17:30:00,0.266
28/04/2024 17:45:00,0.266
28/04/2024 18:00:00,0.266
28/04/2024 18:15:00,0.266
28/04/2024 18:30:00,0.266
28/04/2024 18:45:00,0.265
28/04/2024 19:00:00,0.265
28/04/2024 19:15:00,0.265
28/04/2024 19:30:00,0.265
28/04/2024 19:45:00,0.265
28/04/2024 20:00:00,0.265
28/04/2024 20:15:00,0.265
28/04/2024 20:30:00,0.265
28/04/2024 20:45:00,0.265
28/04/2024 21:00:00,0.264
28/04/2024 21:15:00,0.264
28/04/2024 21:30:00,0.264
28/04/2024 21:45:00,0.264
28/04/2024 22:00:00,0.264
28/04/2024 22:15:00,0.264
28/04/2024 22:30:00,0.264
28/04/2024 22:45:00,0.263
28/04/2024 23:00:00,0.263
28/04/2024 23:15:00,0.263
28/04/2024 23:30:00,0.263
28/04/2024 23:45:00,0.263
29/04/2024 00:00:00,0.251
29/04/2024 00:15:00,0.251
29/04/2024 00:30:00,0.251
29/04/2024 00:45:00,0.25
29/04/2024 01:00:00,0.25
29/04/2024 01:15:00,0.249
29/04/2024 01:30:00,0.249
29/04/2024 01:45:00,0.249
29/04/2024 02:00:00,0.249
29/04/2024 02:15:00,0.249
29/04/2024 02:30:00,0.249
29/04/2024 02:45:00,0.249
29/04/2024 03:00:00,0.249
29/04/2024 03:15:00,0.249
29/04/2024 03:30:00,0.249
29/04/2024 03:45:00,0.249
29/04/2024 04:00:00,0.249
29/04/2024 04:15:00,0.249
29/04/2024 04:30:00,0.249
29/04/2024 04:45:00,0.249
29/04/2024 05:00:00,0.249
29/04/2024 05:15:00,0.249
29/04/2024 05:30:00,0.249
29/04/2024 05:45:00,0.249
29/04/2024 06:00:00,0.249
29/04/2024 06:15:00,0.249
29/04/2024 06:30:00,0.249
29/04/2024 06:45:00,0.249
29/04/2024 07:00:00,0.25
29/04/2024 07:15:00,0.249
29/04/2024 07:30:00,0.249
29/04/2024 07:45:00,0.25
29/04/2024 08:00:00,0.25
29/04/2024 08:15:00,0.25
29/04/2024 08:30:00,0.25
29/04/2024 08:45:00,0.251
29/04/2024 09:00:00,0.251
29/04/2024 09:15:00,0.251
29/04/2024 09:30:00,0.251
29/04/2024 09:45:00,0.251
29/04/2024 10:00:00,0.252
29/04/2024 10:15:00,0.252
29/04/2024 10:30:00,0.252
29/04/2024 10:45:00,0.252
29/04/2024 11:00:00,0.252
29/04/2024 11:15:00,0.252
29/04/2024 11:30:00,0.253
29/04/2024 11:45:00,0.253
29/04/2024 12:00:00,0.255
29/04/2024 12:15:00,0.256
29/04/2024 12:30:00,0.256
29/04/2024 12:45:00,0.26
29/04/2024 13:00:00,0.263
29/04/2024 13:15:00,0.263
29/04/2024 13:30:00,0.266
29/04/2024 13:45:00,0.266
29/04/2024 14:00:00,0.27
29/04/2024 14:15:00,0.272
29/04/2024 14:30:00,0.275
29/04/2024 14:45:00,0.276
29/04/2024 15:00:00,0.281
29/04/2024 15:15:00,0.286
29/04/2024 15:30:00,0.294
29/04/2024 15:45:00,0.3
29/04/2024 16:00:00,0.309
29/04/2024 16:15:00,0.32
29/04/2024 16:30:00,0.332
29/04/2024 16:45:00,0.35
29/04/2024 17:00:00,0.37
29/04/2024 17:15:00,0.39
29/04/2024 17:30:00,0.409
29/04/2024 17:45:00,0.429
29/04/2024 18:00:00,0.45
29/04/2024 18:15:00,0.478
29/04/2024 18:30:00,0.506
29/04/2024 18:45:00,0.539
29/04/2024 19:00:00,0.57
29/04/2024 19:15:00,0.591
29/04/2024 19:30:00,0.604
29/04/2024 19:45:00,0.61
29/04/2024 20:00:00,0.614
29/04/2024 20:15:00,0.614
29/04/2024 20:30:00,0.614
29/04/2024 20:45:00,0.612
29/04/2024 21:00:00,0.61
29/04/2024 21:15:00,0.607
29/04/2024 21:30:00,0.602
29/04/2024 21:45:00,0.598
29/04/2024 22:00:00,0.593
29/04/2024 22:15:00,0.59
29/04/2024 22:30:00,0.587
29/04/2024 22:45:00,0.586
29/04/2024 23:00:00,0.585
29/04/2024 23:15:00,0.583
29/04/2024 23:30:00,0.587
29/04/2024 23:45:00,0.59
30/04/2024 00:00:00,0.591
30/04/2024 00:15:00,0.591
30/04/2024 00:30:00,0.593
30/04/2024 00:45:00,0.592
30/04/2024 01:00:00,0.592
30/04/2024 01:15:00,0.591
30/04/2024 01:30:00,0.59
30/04/2024 01:45:00,0.59
30/04/2024 02:00:00,0.588
30/04/2024 02:15:00,0.585
30/04/2024 02:30:00,0.583
30/04/2024 02:45:00,0.58
30/04/2024 03:00:00,0.578
30/04/2024 03:15:00,0.573
30/04/2024 03:30:00,0.57
30/04/2024 03:45:00,0.568
30/04/2024 04:00:00,0.564
30/04/2024 04:15:00,0.559
30/04/2024 04:30:00,0.557
30/04/2024 04:45:00,0.553
30/04/2024 05:00:00,0.549
30/04/2024 05:15:00,0.547
30/04/2024 05:30:00,0.544
30/04/2024 05:45:00,0.54
30/04/2024 06:00:00,0.539
30/04/2024 06:15:00,0.536
30/04/2024 06:30:00,0.534
30/04/2024 06:45:00,0.533
30/04/2024 07:00:00,0.528
30/04/2024 07:15:00,0.527
30/04/2024 07:30:00,0.526
30/04/2024 07:45:00,0.525
30/04/2024 08:00:00,0.524
30/04/2024 08:15:00,0.521
30/04/2024 08:30:00,0.518
30/04/2024 08:45:00,0.518
30/04/2024 09:00:00,0.517
30/04/2024 09:15:00,0.517
30/04/2024 09:30:00,0.517
30/04/2024 09:45:00,0.517
30/04/2024 10:00:00,0.516
30/04/2024 10:15:00,0.517
30/04/2024 10:30:00,0.518
30/04/2024 10:45:00,0.52
30/04/2024 11:00:00,0.525
30/04/2024 11:15:00,0.527
30/04/2024 11:30:00,0.531
30/04/2024 11:45:00,0.534
30/04/2024 12:00:00,0.536
30/04/2024 12:15:00,0.539
30/04/2024 12:30:00,0.544
30/04/2024 12:45:00,0.553
30/04/2024 13:00:00,0.558
30/04/2024 13:15:00,0.564
30/04/2024 13:30:00,0.569
30/04/2024 13:45:00,0.576
30/04/2024 14:00:00,0.581
30/04/2024 14:15:00,0.586
30/04/2024 14:30:00,0.589
30/04/2024 14:45:00,0.59
30/04/2024 15:00:00,0.591
30/04/2024 15:15:00,0.59
30/04/2024 15:30:00,0.591
30/04/2024 15:45:00,0.59
30/04/2024 16:00:00,0.59
30/04/2024 16:15:00,0.587
30/04/2024 16:30:00,0.586
30/04/2024 16:45:00,0.582
30/04/2024 17:00:00,0.581
30/04/2024 17:15:00,0.579
30/04/2024 17:30:00,0.577
30/04/2024 17:45:00,0.575
30/04/2024 18:00:00,0.571
30/04/2024 18:15:00,0.57
30/04/2024 18:30:00,0.568
30/04/2024 18:45:00,0.566
30/04/2024 19:00:00,0.565
30/04/2024 19:15:00,0.562
30/04/2024 19:30:00,0.561
30/04/2024 19:45:00,0.56
30/04/2024 20:00:00,0.558
30/04/2024 20:15:00,0.558
30/04/2024 20:30:00,0.556
30/04/2024 20:45:00,0.556
30/04/2024 21:00:00,0.556
30/04/2024 21:15:00,0.554
30/04/2024 21:30:00,0.554
30/04/2024 21:45:00,0.551
30/04/2024 22:00:00,0.553
30/04/2024 22:15:00,0.551
30/04/2024 22:30:00,0.551
30/04/2024 22:45:00,0.55
30/04/2024 23:00:00,0.55
30/04/2024 23:15:00,0.55
30/04/2024 23:30:00,0.549
30/04/2024 23:45:00,0.548
01/05/2024 00:00:00,0.547
01/05/2024 00:15:00,0.547
01/05/2024 00:30:00,0.547
01/05/2024 00:45:00,0.547
01/05/2024 01:00:00,0.546
01/05/2024 01:15:00,0.545
01/05/2024 01:30:00,0.544
01/05/2024 01:45:00,0.543
01/05/2024 02:00:00,0.542
01/05/2024 02:15:00,0.542
01/05/2024 02:30:00,0.54
01/05/2024 02:45:00,0.539
01/05/2024 03:00:00,0.539
01/05/2024 03:15:00,0.538
01/05/2024 03:30:00,0.537
01/05/2024 03:45:00,0.536
01/05/2024 04:00:00,0.536
01/05/2024 04:15:00,0.535
01/05/2024 04:30:00,0.535
01/05/2024 04:45:00,0.534
01/05/2024 05:00:00,0.534
01/05/2024 05:15:00,0.533
01/05/2024 05:30:00,0.534
01/05/2024 05:45:00,0.532
01/05/2024 06:00:00,0.531
01/05/2024 06:15:00,0.531
01/05/2024 06:30:00,0.531
01/05/2024 06:45:00,0.528
01/05/2024 07:00:00,0.528
01/05/2024 07:15:00,0.527
01/05/2024 07:30:00,0.525
01/05/2024 07:45:00,0.526
01/05/2024 08:00:00,0.525
01/05/2024 08:15:00,0.525
01/05/2024 08:30:00,0.524
01/05/2024 08:45:00,0.525
01/05/2024 09:00:00,0.524
01/05/2024 09:15:00,0.524
01/05/2024 09:30:00,0.522
01/05/2024 09:45:00,0.521
01/05/2024 10:00:00,0.521
01/05/2024 10:15:00,0.521
01/05/2024 10:30:00,0.518
01/05/2024 10:45:00,0.518
01/05/2024 11:00:00,0.518
01/05/2024 11:15:00,0.517
01/05/2024 11:30:00,0.516
01/05/2024 11:45:00,0.515
01/05/2024 12:00:00,0.515
01/05/2024 12:15:00,0.514
01/05/2024 12:30:00,0.514
01/05/2024 12:45:00,0.513
01/05/2024 13:00:00,0.512
01/05/2024 13:15:00,0.512
01/05/2024 13:30:00,0.511
01/05/2024 13:45:00,0.511
01/05/2024 14:00:00,0.507
01/05/2024 14:15:00,0.507
01/05/2024 14:30:00,0.507
01/05/2024 14:45:00,0.507
01/05/2024 15:00:00,0.505
01/05/2024 15:15:00,0.504
01/05/2024 15:30:00,0.503
01/05/2024 15:45:00,0.502
01/05/2024 16:00:00,0.502
01/05/2024 16:15:00,0.501
01/05/2024 16:30:00,0.499
01/05/2024 16:45:00,0.499
01/05/2024 17:00:00,0.497
01/05/2024 17:15:00,0.497
01/05/2024 17:30:00,0.497
01/05/2024 17:45:00,0.495
01/05/2024 18:00:00,0.495
01/05/2024 18:15:00,0.494
01/05/2024 18:30:00,0.493
01/05/2024 18:45:00,0.493
01/05/2024 19:00:00,0.492
01/05/2024 19:15:00,0.492
01/05/2024 19:30:00,0.491
01/05/2024 19:45:00,0.49
01/05/2024 20:00:00,0.49
01/05/2024 20:15:00,0.489
01/05/2024 20:30:00,0.489
01/05/2024 20:45:00,0.489
01/05/2024 21:00:00,0.488
01/05/2024 21:15:00,0.486
01/05/2024 21:30:00,0.485
01/05/2024 21:45:00,0.484
01/05/2024 22:00:00,0.483
01/05/2024 22:15:00,0.482
01/05/2024 22:30:00,0.482
01/05/2024 22:45:00,0.482
01/05/2024 23:00:00,0.482
01/05/2024 23:15:00,0.482
01/05/2024 23:30:00,0.481
01/05/2024 23:45:00,0.48
02/05/2024 00:00:00,0.479
02/05/2024 00:15:00,0.479
02/05/2024 00:30:00,0.477
02/05/2024 00:45:00,0.477
02/05/2024 01:00:00,0.475
02/05/2024 01:15:00,0.475
02/05/2024 01:30:00,0.474
02/05/2024 01:45:00,0.474
02/05/2024 02:00:00,0.473
02/05/2024 02:15:00,0.473
02/05/2024 02:30:00,0.472
02/05/2024 02:45:00,0.471
02/05/2024 03:00:00,0.471
02/05/2024 03:15:00,0.471
02/05/2024 03:30:00,0.47
02/05/2024 03:45:00,0.47
02/05/2024 04:00:00,0.469
02/05/2024 04:15:00,0.469
02/05/2024 04:30:00,0.468
02/05/2024 04:45:00,0.467
02/05/2024 05:00:00,0.467
02/05/2024 05:15:00,0.466
02/05/2024 05:30:00,0.466
02/05/2024 05:45:00,0.464
02/05/2024 06:00:00,0.463
02/05/2024 06:15:00,0.463
02/05/2024 06:30:00,0.462
02/05/2024 06:45:00,0.461
02/05/2024 07:00:00,0.46
02/05/2024 07:15:00,0.46
02/05/2024 07:30:00,0.46
02/05/2024 07:45:00,0.46
02/05/2024 08:00:00,0.459
02/05/2024 08:15:00,0.459
02/05/2024 08:30:00,0.458
02/05/2024 08:45:00,0.458
02/05/2024 09:00:00,0.458
02/05/2024 09:15:00,0.457
02/05/2024 09:30:00,0.457
02/05/2024 09:45:00,0.455
02/05/2024 10:00:00,0.457
02/05/2024 10:15:00,0.453
02/05/2024 10:30:00,0.455
02/05/2024 10:45:00,0.453
02/05/2024 11:00:00,0.45
02/05/2024 11:15:00,0.45
02/05/2024 11:30:00,0.45
02/05/2024 11:45:00,0.449
02/05/2024 12:00:00,0.449
02/05/2024 12:15:00,0.448
02/05/2024 12:30:00,0.448
02/05/2024 12:45:00,0.447
02/05/2024 13:00:00,0.444
02/05/2024 13:15:00,0.446
02/05/2024 13:30:00,0.442
02/05/2024 13:45:00,0.441
02/05/2024 14:00:00,0.44
02/05/2024 14:15:00,0.439
02/05/2024 14:30:00,0.438
02/05/2024 14:45:00,0.437
02/05/2024 15:00:00,0.437
